Torna al catalogo

SL-8 DEB

AttivoLEO
NORAD 22841·DEBRIS·🇷🇺 Russia

Lanciato Feb 12, 1991 da Plesetsk Cosmodrome

Loading…

Prossimi Passaggi (prossime 24 ore)

TLE

AggiornatoSource: Space-Track

Epoca: Sep 14, 2026, 05:27 UTC

1 22841U 91009CL  26257.22708663 -.00000002  00000-0  11389-3 0  9990
2 22841  74.0473 347.9903 0129510  45.2574 342.7895 12.22980486585619

Traccia SL-8 DEB in tempo reale con AllMySat

Download on the App Store